Location: Maccacari
(45.1333°N, 11.1333°E)
Time: 11:53:00
(UTC+00:00)

SR - Pass Details

Date: 19 June 2021
Orbit: 577 x 878 km, 66.7° (Epoch: 24 July)

Event Time Altitude Azimuth Distance (km) Brightness Sun altitude
Rises 22:34:58 0° 333° (NNW) 3,359 ? -20.8°
Reaches altitude 10° 22:38:19 10° 352° (N) 2,368 ? -20.9°
Maximum altitude 22:41:57 18° 34° (NE) 1,814 ? -21.0°
Drops below altitude 10° 22:45:23 10° 77° (ENE) 2,226 ? -21.1°
Sets 22:48:23 0° 96° (E) 3,079 ? -21.1°
